Juliana Airport, Sint Maarten

8:10 PM AST on July 24, 2017 (GMT -0400)
Princess Juliana International

Weather History for TNCM - February, 2013

Change the Weather History Date:

Tuesday, February 12, 2013

  Actual Average Record
Temperature  
Mean Temperature 76 °F -  
Max Temperature 82 °F 81 °F 84 °F (1998)
Min Temperature 70 °F 72 °F 70 °F (2013)
Cooling Degree Days 11    
Growing Degree Days 26 (Base 50)    
Moisture  
Dew Point 66 °F    
Average Humidity 66    
Maximum Humidity 88    
Minimum Humidity 51    
Precipitation  
Precipitation 0.00 in 0.06 in - ()
Sea Level Pressure  
Sea Level Pressure 30.06 in    
Wind  
Wind Speed 15 mph ()    
Max Wind Speed 22 mph    
Max Gust Speed -    
Visibility 7.8 miles    
Events Rain    
Averages and records for this station are not official NWS values.
T = Trace of Precipitation, MM = Missing Value Source: Averaged Metar Reports

Daily Weather History Graph

Daily Weather History Graph

Search for Another Location

Airport or City:

Trip Planner

Search our weather history database for the weather conditions in past years. The results will help you decide how hot, cold, wet, or windy it might be!

Date:

Astronomy

Feb. 12, 2013 Rise Set
Actual Time 6:41 AM AST 6:12 PM AST
Civil Twilight 6:18 AM AST 6:34 PM AST
Nautical Twilight 5:53 AM AST 7:00 PM AST
Astronomical Twilight 5:27 AM AST 7:26 PM AST
Moon 8:05 AM AST (2/12) 8:34 PM AST (2/12)
Length of Visible Light 12h 16m
Length of Day
11h 31m
Waxing Crescent, 7% of the Moon is Illuminated
Feb 12
Waxing Crescent
Feb 17
First Quarter
Feb 25
Full
Mar 4
Last Quarter
Mar 11
New

Hourly Weather History & Observations

Time (AST) Temp. Heat Index Dew Point Humidity Pressure Visibility Wind Dir Wind Speed Gust Speed Precip Events Conditions
12:00 AM 71.6 °F - 68.0 °F 88% 30.09 in 5.6 mi ENE 13.8 mph - N/A Rain Rain
1:00 AM 75.2 °F - 68.0 °F 78% 30.06 in 6.2 mi ENE 16.1 mph - N/A   Scattered Clouds
2:00 AM 75 °F - 67 °F 70% 30.06 in 12 mi ENE 19.6 mph - - Rain Light Rain Showers
2:00 AM 75.2 °F - 68.0 °F 78% 30.04 in 6.2 mi ENE 19.6 mph - N/A   Scattered Clouds
3:00 AM 75.2 °F - 66.2 °F 73% 30.04 in 6.2 mi ENE 19.6 mph - N/A   Scattered Clouds
4:00 AM 75.2 °F - 66.2 °F 73% 30.04 in 6.2 mi ENE 18.4 mph - N/A   Scattered Clouds
5:00 AM 75 °F - 66 °F 66% 30.04 in 19 mi ENE 18.4 mph - -   Mostly Cloudy
5:00 AM 75.2 °F - 66.2 °F 73% 30.04 in 6.2 mi ENE 18.4 mph - N/A   Scattered Clouds
6:00 AM 75.2 °F - 66.2 °F 73% 30.04 in 6.2 mi ENE 17.3 mph - N/A   Scattered Clouds
7:00 AM 75.2 °F - 64.4 °F 69% 30.04 in 6.2 mi ENE 19.6 mph - N/A   Scattered Clouds
8:00 AM 76 °F - 65 °F 61% 30.08 in 19 mi ENE 16.1 mph - -   Scattered Clouds
8:00 AM 77.0 °F - 64.4 °F 65% 30.06 in 6.2 mi ENE 16.1 mph - N/A   Partly Cloudy
9:00 AM 78.8 °F - 64.4 °F 61% 30.09 in 6.2 mi ENE 19.6 mph - N/A   Partly Cloudy
10:00 AM 80.6 °F 82.7 °F 66.2 °F 61% 30.09 in 6.2 mi ENE 16.1 mph - N/A   Scattered Clouds
11:00 AM 80 °F - 65 °F 51%  in 19 mi ENE 18.4 mph - -  
11:00 AM 80.6 °F 82.7 °F 66.2 °F 61% 30.09 in 6.2 mi ENE 18.4 mph - N/A   Scattered Clouds
12:00 PM 80.6 °F 82.7 °F 66.2 °F 61% 30.09 in 6.2 mi ENE 21.9 mph - N/A   Partly Cloudy
1:00 PM 80.6 °F 82.3 °F 64.4 °F 58% 30.06 in 6.2 mi ENE 19.6 mph - N/A   Partly Cloudy
2:00 PM 81 °F - 66 °F 52% 30.05 in 22 mi East 15.0 mph - -   Partly Cloudy
2:00 PM 82.4 °F 84.6 °F 66.2 °F 58% 30.04 in 6.2 mi ENE 15.0 mph - N/A   Scattered Clouds
3:00 PM 80.6 °F 82.3 °F 64.4 °F 58% 30.04 in 6.2 mi ENE 19.6 mph - N/A   Mostly Cloudy
4:00 PM 78.8 °F - 64.4 °F 61% 30.04 in 6.2 mi ENE 15.0 mph - N/A   Scattered Clouds
5:00 PM 78 °F - 65 °F 56% 30.05 in 22 mi East 17.3 mph - -   Partly Cloudy
5:00 PM 78.8 °F - 64.4 °F 61% 30.04 in 6.2 mi East 17.3 mph - N/A   Scattered Clouds
6:00 PM 77.0 °F - 64.4 °F 65% 30.04 in 6.2 mi ENE 13.8 mph - N/A   Partly Cloudy
7:00 PM 77.0 °F - 64.4 °F 65% 30.04 in 6.2 mi ENE 13.8 mph - N/A   Partly Cloudy
8:00 PM 76 °F - 65 °F 60% 30.07 in 22 mi East 13.8 mph - -   Scattered Clouds
8:00 PM 75.2 °F - 64.4 °F 69% 30.06 in 6.2 mi ENE 13.8 mph - N/A   Partly Cloudy
9:00 PM 77.0 °F - 66.2 °F 69% 30.06 in 6.2 mi East 10.4 mph - N/A   Partly Cloudy
10:00 PM 75.2 °F - 66.2 °F 73% 30.06 in 6.2 mi ENE 12.7 mph - N/A   Partly Cloudy
11:00 PM 75 °F - 65 °F 65% 30.09 in 22 mi East 12.7 mph - -   Scattered Clouds
11:00 PM 75.2 °F - 66.2 °F 73% 30.06 in 6.2 mi East 12.7 mph - N/A   Partly Cloudy